Carolina Forest, South Carolina
Current Conditions -  °F | °C
As of 8:45 AM on Sunday 23 Nov 2014 (Local Time) from KMYR Reporting Station
Light Rain Light Rain  
Wind Chill: 59°   Ceiling: 4000
Heat Index: 59°   Visibility: 3mi
Dew Point: 55°   Wind: 13mph
Humidity: 88%   Direction: 80°E
Pressure: 30.23"   Gusts: NA
Location:  33.7109°N, 78.9964°W
Report Text: KMYR 231345Z 08011KT 3SM -RABR OVC040 15/13 A3023
Loading
Personal Weather Stations






























Interactive Weather Map New forecast layout! Learn more

10-Day Weather Forecast

Advertisements
Track Severe Weather on mobile